Voltar ao catálogo

GAOFEN 9 DEB

AtivoSSO
NORAD 44600·DEBRIS·🇨🇳 China

Lançado Sep 14, 2015 de Jiuquan Satellite Launch Center

Loading…

Próximas Passagens (próximas 24 horas)

TLE

AtualizadoSource: Space-Track

Época: Sep 12, 2026, 17:59 UTC

1 44600U 15047B   26255.74957419  .00001689  00000-0  30272-3 0  9998
2 44600  98.1394 182.1643 0150713 155.5003 205.3458 14.60975178578624

Acompanhe GAOFEN 9 DEB em tempo real com AllMySat

Download on the App Store